Location: Mascot Post Office (historical)
(40.2645°N, 99.5462°W)
Time: 17:26:36
(UTC+00:00)

Cosmos 1833 Rocket - Pass Details

Date: 14 July 2020
Orbit: 832 x 840 km, 71.0° (Epoch: 05 August)

Event Time Altitude Azimuth Distance (km) Brightness Sun altitude
Exits shadow 07:31:47 27° 108° (ESE) 1,568 4.0 -27.2°
Maximum altitude 07:32:05 27° 102° (ESE) 1,563 4.0 -27.1°
Drops below altitude 10° 07:36:41 10° 47° (NE) 2,448 5.8 -26.9°
Sets 07:39:28 0° 36° (NE) 3,387 6.9 -26.8°
